Lake Charles, LA

5:00 AM CDT on July 28, 2016 (GMT -0500)
Lake Charles Regional

Weather History for KLCH - March, 2014

Change the Weather History Date:

Thursday, March 20, 2014

  Actual Average Record
Temperature  
Mean Temperature 64 °F 62 °F  
Max Temperature 75 °F 72 °F 85 °F (1910)
Min Temperature 53 °F 52 °F 21 °F (1923)
Degree Days  
Heating Degree Days 1 4  
Month to date heating degree days 199 123  
Since 1 July heating degree days 1850 1405  
Cooling Degree Days 0 2  
Month to date cooling degree days 3 27  
Year to date cooling degree days 18 50  
Growing Degree Days 15 (Base 50)    
Moisture  
Dew Point 47 °F    
Average Humidity 66    
Maximum Humidity 100    
Minimum Humidity 31    
Precipitation  
Precipitation 0.00 in 0.12 in 2.55 in (1985)
Month to date precipitation 1.56 2.35  
Year to date precipitation 8.35 11.04  
Snow  
Snow 0.00 in 0.00 in 0.00 in ()
Month to date snowfall 0.0 0.0  
Since 1 July snowfall 0.1 0.1  
Snow Depth 0.00 in    
Sea Level Pressure  
Sea Level Pressure 30.15 in    
Wind  
Wind Speed 6 mph (NE)    
Max Wind Speed 15 mph    
Max Gust Speed 19 mph    
Visibility 10 miles    
Events      
T = Trace of Precipitation, MM = Missing Value Source: NWS Daily Summary

Daily Weather History Graph

Daily Weather History Graph

Search for Another Location

Airport or City:

Trip Planner

Search our weather history database for the weather conditions in past years. The results will help you decide how hot, cold, wet, or windy it might be!

Date:

Astronomy

Mar. 20, 2014 Rise Set
Actual Time 7:16 AM CDT 7:24 PM CDT
Civil Twilight 6:52 AM CDT 7:48 PM CDT
Nautical Twilight 6:24 AM CDT 8:16 PM CDT
Astronomical Twilight 5:56 AM CDT 8:44 PM CDT
Moon 11:26 PM CDT (3/20) 9:40 AM CDT (3/20)
Length of Visible Light 12h 55m
Length of Day
12h 07m
Waning Gibbous, 84% of the Moon is Illuminated
Mar 20
Waning Gibbous
Mar 23
Last Quarter
Mar 30
New
Apr 7
First Quarter
Apr 15
Full

Hourly Weather History & Observations

Time (CDT) Temp. Dew Point Humidity Pressure Visibility Wind Dir Wind Speed Gust Speed Precip Events Conditions
12:11 AM 62.1 °F 61.0 °F 96% 30.13 in 7.0 mi Calm Calm - N/A   Overcast
12:19 AM 63.0 °F 61.0 °F 93% 30.14 in 8.0 mi West 5.8 mph - N/A   Overcast
12:53 AM 63.0 °F 60.1 °F 90% 30.16 in 9.0 mi North 4.6 mph - N/A   Overcast
1:53 AM 61.0 °F 46.0 °F 58% 30.16 in 10.0 mi NNE 9.2 mph - N/A   Overcast
2:53 AM 60.1 °F 43.0 °F 53% 30.16 in 10.0 mi NNE 6.9 mph - N/A   Overcast
3:53 AM 59.0 °F 42.1 °F 53% 30.15 in 10.0 mi NNE 11.5 mph - N/A   Overcast
4:53 AM 59.0 °F 42.1 °F 53% 30.15 in 10.0 mi NNE 6.9 mph - N/A   Overcast
5:53 AM 55.9 °F 42.1 °F 60% 30.17 in 10.0 mi North 3.5 mph - N/A   Scattered Clouds
6:53 AM 55.0 °F 42.1 °F 62% 30.18 in 10.0 mi NNE 8.1 mph - N/A   Scattered Clouds
7:53 AM 55.9 °F 43.0 °F 62% 30.19 in 10.0 mi NE 5.8 mph - N/A   Overcast
8:53 AM 57.9 °F 44.1 °F 60% 30.20 in 10.0 mi NNE 6.9 mph - N/A   Overcast
9:53 AM 62.1 °F 44.1 °F 52% 30.21 in 10.0 mi NE 11.5 mph - N/A   Clear
10:53 AM 64.9 °F 42.1 °F 43% 30.22 in 10.0 mi NE 11.5 mph - N/A   Clear
11:53 AM 68.0 °F 43.0 °F 40% 30.20 in 10.0 mi East 10.4 mph - N/A   Clear
12:53 PM 70.0 °F 44.1 °F 39% 30.19 in 10.0 mi NNE 9.2 mph - N/A   Clear
1:53 PM 70.0 °F 42.1 °F 36% 30.16 in 10.0 mi East 4.6 mph - N/A   Clear
2:53 PM 72.0 °F 43.0 °F 35% 30.14 in 10.0 mi Variable 4.6 mph - N/A   Clear
3:53 PM 73.0 °F 43.0 °F 34% 30.12 in 10.0 mi Variable 3.5 mph - N/A   Clear
4:53 PM 75.0 °F 43.0 °F 32% 30.10 in 10.0 mi Calm Calm - N/A   Clear
5:53 PM 73.0 °F 45.0 °F 37% 30.09 in 10.0 mi SE 5.8 mph - N/A   Clear
6:53 PM 70.0 °F 48.9 °F 47% 30.09 in 10.0 mi SSW 4.6 mph - N/A   Clear
7:53 PM 64.0 °F 50.0 °F 60% 30.09 in 10.0 mi SSW 4.6 mph - N/A   Clear
8:53 PM 61.0 °F 55.0 °F 81% 30.10 in 10.0 mi SSW 4.6 mph - N/A   Clear
9:53 PM 57.9 °F 54.0 °F 87% 30.10 in 10.0 mi Calm Calm - N/A   Clear
10:53 PM 57.0 °F 54.0 °F 89% 30.10 in 9.0 mi SSW 3.5 mph - N/A   Clear
11:53 PM 55.9 °F 55.0 °F 97% 30.11 in 7.0 mi Calm Calm - N/A   Clear